[Iaude] MPEC O08: 2024 NP3 [a=0.75,e=0.61,i=3.2,H=22.5]
    mpec at cfa.harvard.edu 
    mpec at cfa.harvard.edu
       
    Tue Jul 16 17:47:44 EDT 2024
    
    
  
M.P.E.C. 2024-O08                                 Issued 2024 July 16, 21:46 UT
     The Minor Planet Electronic Circulars contain information on unusual
         minor planets, routine data on comets and natural satellites,
         and occasional editorial announcements.  They are published
    on behalf of Division F of the International Astronomical Union by the
          Minor Planet Center, Smithsonian Astrophysical Observatory,
                          Cambridge, MA 02138, U.S.A.
			  
             Prepared using the Tamkin Foundation Computer Network
                              MPC at CFA.HARVARD.EDU
            URL https://www.minorplanetcenter.net/    ISSN 1523-6714
                                    2024 NP3                                    
Observations:
     K24N03P*KB2024 07 14.88957 20 32 25.723-57 14 27.74         18.5 GXEO008L87
     K24N03P KB2024 07 14.89571 20 32 14.676-57 14 19.21         19.5 GXEO008L87
     K24N03P KB2024 07 14.90184 20 32 03.610-57 14 10.50         19.4 GXEO008L87
     K24N03P KB2024 07 14.90823 20 31 51.943-57 14 02.58         19.1 GXEO008L87
     K24N03P KB2024 07 14.91434 20 31 40.954-57 13 53.15         18.7 GXEO008L87
     K24N03P KB2024 07 14.92047 20 31 29.806-57 13 44.83         19.3 GXEO008L87
     K24N03P  C2024 07 15.05384720 27 41.16 -57 09 12.9                WEO008X09
     K24N03P  C2024 07 15.06084720 27 28.82 -57 09 02.1                WEO008X09
     K24N03P KB2024 07 15.08752 20 26 28.980-57 08 45.24         18.7 GXEO008L87
     K24N03P KB2024 07 15.09266 20 26 19.817-57 08 33.94         19.2 GXEO008L87
     K24N03P KB2024 07 15.09781 20 26 10.697-57 08 22.63         18.7 GXEO008L87
     K24N03P KC2024 07 15.51003 20 14 48.15 -56 53 15.6          19.6 VqEO008E23
     K24N03P KC2024 07 15.52392 20 14 24.60 -56 52 44.9          19.6 VqEO008E23
     K24N03P KC2024 07 15.53781 20 14 01.30 -56 52 12.9          19.6 VqEO008E23
     K24N03P 1B2024 07 15.81527220 06 39.103-56 39 51.72         19.2 VZEO008M49
     K24N03P 1B2024 07 15.82485020 06 23.639-56 39 28.20         19.5 VZEO008M49
     K24N03P 1B2024 07 15.83442720 06 08.152-56 39 04.96         19.3 VZEO008M49
     K24N03P KB2024 07 15.93076 20 03 32.299-56 34 50.70         18.5 GXEO008L87
     K24N03P KB2024 07 15.93594 20 03 23.971-56 34 36.55         18.7 GXEO008L87
     K24N03P KB2024 07 15.94109 20 03 15.638-56 34 21.94         18.6 GXEO008L87
     K24N03P KC2024 07 16.82458 19 41 44.89 -55 45 09.3          18.5 GVEO008M21
     K24N03P KC2024 07 16.83934 19 41 24.00 -55 44 18.5          18.7 GVEO008M21
     K24N03P KC2024 07 16.85104 19 41 07.44 -55 43 38.9          18.3 GVEO008M21
Observer details:
E23 Arcadia.  Observer A. Hidas.  0.35-m f/1.9 reflector + CCD.
L87 Moonbase South Observatory, Hakos.  Observer G. Duszanowicz.  0.28-m f/1.9
    reflector + CMO.
M21 Schiaparelli Southern Observatory, Hakos.  Observers A. Aletti, F.
    Bellini, L. Buzzi, G. Galli.  Measurer G. Galli.  0.36-m f/8.4 reflector +
    CCD.
M49 IAS Remote Observatory, Hakos.  Observers D. Husar, M. Junius, L. Demetz,
    A. Karacali, P. Ditz, R. Hellot, T. Daiber, T. Steinbach.  Measurer M.
    Junius.  0.25-m f/4.5 reflector + CMO.
X09 Deep Random Survey, Rio Hurtado.  Observers A. Schnabel, D. Ruhela.
    Measurer S. Deen.  0.43-m reflector + CMOS.
Orbital elements:
2024 NP3                                                 Earth MOID = 0.0289 AU
Epoch 2024 Mar. 31.0 TT = JDT 2460400.5                 MPC                     
M 316.98940              (2000.0)            P               Q                  
n   1.52814013     Peri.  120.09546     -0.67778897     -0.73515691             
a   0.7464956      Node    12.59829     +0.65405254     -0.61036852             
e   0.6069997      Incl.    3.18031     +0.33588301     -0.29494844             
P   0.64           H   22.56          G   0.15           U   8                  
Residuals in seconds of arc
240714 L87  0.8-  0.2-    240715 L87  0.5+  0.5-    240715 M49  0.1-  0.2-
240714 L87  0.2-  0.1+    240715 L87  0.2+  0.2-    240715 L87  0.2-  0.4+
240714 L87  0.3+  0.4+    240715 L87  0.4+  0.0     240715 L87  0.1+  0.0
240714 L87  0.4-  0.5-    240715 E23  0.0   0.0     240715 L87  0.0   0.1+
240714 L87  0.3+  0.3+    240715 E23  0.8-  0.4-    240716 M21  0.1-  0.2-
240714 L87  0.1+  0.2-    240715 E23  0.4+  0.1-    240716 M21  0.0   0.4+
240715 X09  0.3+  0.0     240715 M49  0.1+  0.0     240716 M21  0.1+  0.2-
240715 X09  0.1-  0.4+    240715 M49  0.1+  0.2+
Ephemeris:
2024 NP3                 a,e,i = 0.75, 0.61, 3                   q = 0.2934
Date    TT    R. A. (2000) Decl.     Delta      r    Elong.  Phase     V
2024 06 16    03 03 12.1 +02 07 09   0.1930  0.8848    43.1   128.3    24.3
...
2024 07 01    01 51 49.5 -23 34 46   0.1044  1.0115    84.2    89.9    20.9
...
2024 07 09    23 40 22.3 -50 03 41   0.08611 1.0645   121.8    54.3    19.4
...
2024 07 15    20 29 07.5 -57 10 49   0.1001  1.0982   143.1    33.7    19.2
2024 07 16    20 01 43.6 -56 30 46   0.1045  1.1033   144.7    32.2    19.2
2024 07 17    19 37 40.9 -55 33 54   0.1093  1.1082   145.6    31.2    19.3
...
2024 07 23    18 10 06.7 -48 14 54   0.1453  1.1352   142.9    32.6    20.0
...
2024 07 31    17 27 29.8 -40 43 38   0.2038  1.1636   133.0    39.7    21.0
...
2024 08 15    17 09 57.9 -33 31 39   0.3256  1.1946   116.6    49.3    22.4
A. U. Tomatic                (C) Copyright 2024 MPC           M.P.E.C. 2024-O08
    
    
More information about the Iaude
mailing list